Location: Los Angeles
(34.0542°N, 118.2411°W)
Time: 12:32:54
(UTC-08:00)

Daily predictions for brighter satellites

Satellite Brightness Start Highest point End
(mag) Time Altitude Azimuth Time Altitude Azimuth Time Altitude Azimuth
CZ-2C R/B 4.1 17:05:16 10° NNE 17:09:37 45° E 17:13:59 10° S
CZ-2C R/B 3.4 17:05:10 10° S 17:10:01 55° W 17:15:02 10° NNW
GPS 2-05 Rocket1 2.7 17:07:26 10° WSW 17:10:33 69° SSE 17:13:43 10° E
SJ-7 4.4 17:08:18 10° SSE 17:12:23 62° ENE 17:16:28 10° N
Okean 1-7 3.5 17:11:50 10° SSE 17:15:54 39° E 17:20:00 10° NNE
Cosmos 304 Rocket 3.8 17:11:26 10° NNW 17:16:15 88° ENE 17:21:02 10° SSE
OAO 3 Copernicus 4.4 17:17:57 10° W 17:23:02 85° SSW 17:28:08 10° ESE
Cosmos 2233 Rocket 4.4 17:16:57 10° SSW 17:23:11 71° W 17:29:24 10° N
CSL-04 Debris 4.2 17:21:36 10° SSE 17:27:01 88° ENE 17:32:27 10° NNW
Sich 1 Rocket 3.6 17:23:23 10° N 17:27:48 63° E 17:32:14 10° SSE
Cosmos 1763 Rocket 4.0 17:26:52 10° NNW 17:31:59 63° WSW 17:37:00 10° S
AQUARIUS 4.2 17:28:43 10° SSE 17:33:13 88° WSW 17:37:43 10° NNW
MTI 3.9 17:30:46 10° NNE 17:33:55 50° E 17:37:03 10° S
Cosmos 44 4.1 17:30:15 10° N 17:34:23 28° NE 17:38:39 10° ESE
Cosmos 1833 Rocket 2.8 17:33:10 10° N 17:38:38 50° ENE 17:44:04 10° SE
Cosmos 2369 Rocket 3.8 17:35:53 10° SE 17:38:38 14° E 17:39:26 13° E
Meteor 1-10 Rocket 4.2 17:34:08 10° S 17:39:44 72° E 17:45:30 10° NNE
CORIOLIS 4.2 17:37:40 10° SSE 17:43:06 86° WSW 17:48:35 10° NNW
USA 116 3.9 17:38:58 10° N 17:43:09 72° WNW 17:46:48 10° SSW
Cosmos 405 4.0 17:40:33 10° NNE 17:43:36 26° ENE 17:46:38 10° SE
SL-27 R/B 2.6 17:41:28 10° NNW 17:44:48 70° WSW 17:48:09 10° S
Tiangong 1 0.4 17:42:33 10° WSW 17:45:08 81° SSE 17:46:16 29° ENE
Cosmos 2297 4.0 17:39:31 10° SSW 17:45:12 73° WNW 17:50:58 10° NNE
Cosmos 1782 Rocket 3.4 17:41:30 10° N 17:45:50 70° E 17:50:10 10° SSE
ALOS 2.9 17:42:56 10° SE 17:47:02 31° ENE 17:51:07 10° N
Cosmos 2278 Rocket 4.1 17:42:52 10° WSW 17:47:37 27° WNW 17:52:25 10° N
YAOGAN 1 2.5 17:43:44 10° SSE 17:48:02 71° ENE 17:52:21 10° N
BREEZE-M R/B 2.9 17:46:02 10° NW 17:48:54 49° NE 17:53:49 10° ESE
Meteor 1-28 Rocket 4.3 17:46:35 10° N 17:50:07 44° WNW 17:53:39 10° SSW
Cosmos 540 Rocket 3.4 17:47:13 10° NNW 17:52:24 71° ENE 17:57:31 10° SSE
COSMO-SKYMED 1 2.5 17:48:43 10° NNE 17:53:04 76° E 17:57:24 10° S
Cosmos 1513 Rocket 4.4 17:46:56 10° S 17:53:13 74° E 17:59:25 10° N
SMAP 4.0 17:48:48 10° S 17:53:18 51° W 17:57:50 10° NNW
BREEZE-M DEB (TANK) 3.1 17:46:28 10° WNW 17:53:31 65° SW 17:56:36 10° SE
Cosmos 1606 3.9 17:50:55 10° SSW 17:54:31 44° W 17:58:08 10° N
Cosmos 1441 Rocket 3.2 17:51:50 10° S 17:55:43 61° E 17:59:35 10° NNE
Cosmos 968 Rocket 3.6 17:51:04 10° S 17:56:04 55° ESE 18:00:45 12° NNE
Ariane Rocket 4.4 17:56:37 10° S 18:01:23 40° W 18:06:10 10° NNW
Cosmos 1943 Rocket 4.1 18:00:12 10° SE 18:00:40 11° ESE 18:00:40 11° ESE
USA 234 3.2 18:01:47 18° NE 18:06:57 78° SE 18:13:29 10° SW
Cosmos 1891 Rocket 4.5 18:01:33 10° S 18:07:43 86° W 18:13:49 10° N
EO 1 Del DPAF 3.7 18:08:36 10° N 18:12:21 60° WNW 18:16:07 10° SSW
CZ-4C R/B 3.3 18:05:58 10° NNW 18:12:53 43° NE 18:18:12 19° ESE
METEOR-M 4.2 18:07:56 10° S 18:13:15 80° WSW 18:18:37 10° NNW
Meteor 1-11 Rocket 3.7 18:08:46 10° N 18:14:31 61° E 18:20:07 10° SSE
ERS-2 2.5 18:11:04 10° S 18:14:43 66° WSW 18:18:22 10° NNW
CZ-4 R/B 3.5 18:16:18 10° SSW 18:19:37 27° W 18:22:55 10° NW
Cosmos 2151 Rocket 3.6 18:16:56 10° N 18:21:16 53° E 18:25:36 10° SSE
DMSP B5D1-3 4.4 18:16:19 10° NNE 18:21:30 87° ESE 18:26:38 10° SSW
OAO 3 Rocket 3.1 18:20:19 10° WSW 18:25:15 89° SSE 18:26:33 50° E
Cosmos 1634 Rocket 4.3 18:20:01 10° SSE 18:25:42 41° E 18:26:52 37° ENE
Nadezhda 4 Rocket 3.8 18:19:52 10° N 18:25:57 66° E 18:32:01 10° SSE
Cosmos 1602 4.2 18:25:11 10° NNW 18:28:59 60° W 18:32:46 10° S
SEDSat Delta rocket 4.4 18:26:49 10° SSW 18:29:57 21° SSE 18:29:57 21° SSE
Meteor 2-20 4.3 18:23:57 10° N 18:30:04 90° WSW 18:36:07 10° S
Cosmos 2034 Rocket 4.4 18:24:35 10° SSW 18:30:53 66° W 18:37:13 10° N
Cosmos 2082 Rocket 2.9 18:25:49 10° NNW 18:31:21 56° WSW 18:36:49 10° S
NOSS 3-1 (C) 4.0 18:27:18 10° S 18:31:25 31° SE 18:31:25 31° SE
Okean 2 Rocket 4.0 18:29:41 10° NNW 18:34:04 49° W 18:38:24 10° SSW
Gblst 52 Del rocket 4.1 18:31:14 10° SW 18:36:45 87° NW 18:38:34 46° NE
Celestis-02/Orion 38 4.4 18:42:37 63° ENE 18:43:15 70° ESE 18:48:27 10° SSW
Cosmos 1674 Rocket 3.5 18:40:16 10° S 18:44:15 74° S 18:44:15 74° S
Timation 2 Rocket 3.9 18:38:25 10° NNW 18:45:08 70° ENE 18:48:30 30° SE
Cosmos 1092 Rocket 3.8 18:39:02 10° N 18:45:10 65° E 18:51:18 10° SSE
ISS -1.8 18:46:29 10° SW 18:48:04 26° SW 18:48:04 26° SW
SPOT 3 Rocket 4.5 18:46:34 10° S 18:51:34 48° W 18:56:36 10° NNW
IUS-13 SRM-1 4.3 18:51:16 10° SW 18:52:03 17° SSW 18:52:03 17° SSW
USA 229 DEB 3.7 18:48:10 10° SW 18:54:53 74° WNW 18:57:42 38° NNE
USA 229 3.7 18:48:16 10° SW 18:54:59 75° WNW 18:57:46 39° NNE
Cosmos 44 Rocket 4.1 18:51:59 10° NW 18:56:45 51° WSW 19:00:06 19° S
FengYun 1-2 T 4.0 18:51:23 10° SSE 18:56:53 81° ENE 19:02:27 10° N
MOS 1-B Rocket 4.4 18:53:18 10° SSE 19:00:23 73° ENE 19:08:45 10° N
Atlas 2A Centaur Rocket 3.3 18:50:49 10° W 19:02:10 42° SSW 19:02:43 41° S
Cosmos 2142 Rocket 4.3 18:59:06 10° S 19:05:06 77° SE 19:05:06 77° SE
Meteor 1-5 Rocket 4.4 19:05:16 10° NNW 19:10:30 64° W 19:15:44 10° S
Cosmos 2369 Rocket 2.7 19:16:27 10° SSW 19:21:18 57° WSW 19:21:18 57° WSW
Cosmos 1943 Rocket 4.1 19:40:24 10° SSW 19:42:16 22° SW 19:42:16 22° SW
CZ-4C R/B 4.0 19:54:34 10° NW 20:01:33 41° WSW 20:03:36 35° SW
